Location: Highland Meadows Observing Site
(48.4428°N, 114.5461°W)
Time: 15:28:37
(UTC-06:00)

Gurwin Techsat 1B - Visible Passes

Search period start: 02 July 2015 00:00
Search period end: 12 July 2015 00:00
Orbit: 813 x 813 km, 98.5° (Epoch: 01 July)

Date Brightness Start Highest point End Pass type
(mag) Time Alt. Az. Time Alt. Az. Time Alt. Az.
02 Jul 10.9 02:51:06 10° NE 02:54:08 16° E 02:57:23 10° SE visible
02 Jul 8.7 04:29:31 10° NNE 04:34:53 83° WNW 04:40:13 10° SSW visible
03 Jul 8.9 04:06:48 10° NNE 04:12:07 66° ESE 04:17:25 10° S visible
04 Jul 9.6 03:44:13 10° NNE 03:49:17 43° E 03:54:21 10° S visible
05 Jul 10.2 03:21:49 10° NE 03:26:20 28° E 03:30:56 10° SSE visible
05 Jul 9.1 05:01:28 10° N 05:06:33 47° WNW 05:11:37 10° SW visible
06 Jul 10.7 02:59:42 10° NE 03:03:18 19° E 03:07:04 10° SE visible
06 Jul 8.7 04:38:35 10° N 04:43:54 70° WNW 04:49:11 10° SSW visible
07 Jul 11.0 02:38:23 10° ENE 02:40:10 12° E 02:42:15 10° ESE visible
07 Jul 8.7 04:15:49 10° NNE 04:21:10 78° ESE 04:26:30 10° S visible
08 Jul 9.3 03:53:09 10° NNE 03:58:22 51° E 04:03:33 10° S visible
09 Jul 9.9 03:30:40 10° NNE 03:35:27 33° E 03:40:17 10° SSE visible
10 Jul 10.5 03:08:25 10° NE 03:12:28 22° E 03:16:38 10° SE visible
10 Jul 8.9 04:47:39 10° N 04:52:54 59° WNW 04:58:07 10° SSW visible
11 Jul 10.9 02:46:39 10° NE 02:49:22 14° E 02:52:20 10° ESE visible
11 Jul 8.7 04:24:50 10° NNE 04:30:12 89° WNW 04:35:32 10° SSW visible
